Weather Roundup
Issued by NWS Corpus Christi, TX

Home | Current Version | Previous Version | Text Only | Print | Product List | Glossary On
Versions: 1 2 3 4 5 6 7 8 9 10 11 12 13 14 15 16 17 18 19 20 21 22 23 24 25 26 27 28 29 30 31 32 33 34 35 36 37 38 39 40 41 42 43 44 45 46 47 48 49 50
000
ASUS44 KCRP 250510
HRRCRP

SOUTH TEXAS REGIONAL WEATHER ROUNDUP
NATIONAL WEATHER SERVICE CORPUS CHRISTI TX
1200 AM CDT TUE APR 25 2017


TXZ229>244-250600-
...CORPUS CHRISTI AREA OBSERVATIONS...

CITY           SKY/WX    TMP DP  RH WIND       PRES   REMARKS
CORPUS CHRISTI PTCLDY    70  63  78 S12       29.76F
NAS CORPUS CHR CLEAR     74  65  73 S17G23    29.75F
ROCKPORT       PTCLDY    73  62  68 S14G23    29.77S
KINGSVILLE NAS PTCLDY    70  64  81 S13       29.76S
ALICE          CLEAR     68  60  75 SE12      29.74F
ORANGE GROVE   CLEAR     69  62  78 S12       29.75F
FALFURRIAS     CLEAR     69  60  74 S9        29.75F
$$

...VICTORIA AREA OBSERVATIONS...

CITY           SKY/WX    TMP DP  RH WIND       PRES   REMARKS
VICTORIA       CLEAR     62  55  77 S3        29.77F
BEEVILLE       FAIR      64  64 100 S7        29.77F
PLEASANTON     PTCLDY    67  57  70 SE7       29.75F
SAN ANTONIO    PTCLDY    68  56  65 S13       29.75S
$$

...LAREDO AREA OBSERVATIONS...

CITY           SKY/WX    TMP DP  RH WIND       PRES   REMARKS
LAREDO         CLEAR     74  59  59 SE16      29.71F
COTULLA        CLEAR     71  56  58 SE10      29.71F
DEL RIO        CLEAR     70  54  56 SE9       29.66F
MCALLEN        CLEAR     72  64  76 SE8       29.77F
HEBBRONVILLE   CLEAR     68  58  70 S8        29.75S
$$

...OTHER TEXAS OBSERVATIONS...

CITY           SKY/WX    TMP DP  RH WIND       PRES   REMARKS
BROWNSVILLE    CLOUDY    75  66  73 S9        29.78F
HOUSTON        PTCLDY    67  54  63 S6        29.77F
COL. STATION   CLEAR     65  54  67 S14       29.74S
AUSTIN         CLEAR     65  55  70 S13       29.72F
WACO           CLEAR     66  54  65 S15       29.68S
FORT WORTH     MOCLDY    69  51  52 S16       29.62F
WICHITA FALLS  CLOUDY    66  50  56 S18       29.51F
LUBBOCK        CLOUDY    76  45  33 S23       29.55S
EL PASO        CLOUDY    79  15   9 SW13G24   29.73S
$$

...MARINE OBSERVATIONS...

STATION/POSITION TIME  SKY/WX   TEMP    WIND        PRES    VSBY  WAVE   SWELL
                                AIR SEA DIR/SP/G                  HT/PER HT/PER
                 (UTC)          (F)     (DEG/KT/KT) (MB)    (MI)  (FT/S) (FT/S)
PORT ARANSAS     0500            73 76  160/ 25/ 26 1007.4F
BUOY 90 E PORT A 0450            73 75  150/ 17/ 21 1008.2F         2/ 3
BUOY 45 SE BAFFI 0450            74     180/ 19/ 21 1007.8R         4/ 4
BUOY 200 E PT IS 0450            74 79  170/ 10/ 14 1010.4F         2/ 5   2/ 5
BUOY 15 E GALVES 0450            71 75  190/ 14/ 16 1008.6F         2/ 3
$$




USA.gov is the U.S. government's official web portal to all federal, state and local government web resources and services.